SCP
-0 -0 -0 -0 -0 -0 -0 -0 -0 -0 -0 -0 -0 -0 -0 -0 -0 -0 -0 -0 -0 -0 -0 -0 -0 -0 -0 -0 -0 -0 0 -0 -0 -0 -0 -0 0 -0 -0 -0 -0 0 0
-0 -0 -0 -0 -0 -0 -0 -0 -0 -0 -0 -0 -0 -0 -0 -0 -0 -0 -0 -0 -0 -0 -0 -0 -0 -0 -0 -0 0 0 0 0 0 -0 0 0 0 -0 -0 0 0 0 0
-0 -0 -0 -0 -0 -0 -0 -0 -0 -0 -0 -0 -0 -0 -0 -0 -0 -0 -0 -0 -0 -0 -0 -0 -0 -0 -0 -0 -0 0 0 -0 -0 -0 -0 -0 0 0 0 0 0 0 0
-0 -0 -0 -0 -0 -0 -0 -0 -0 -0 -0 -0 -0 -0 -0 -0 -0 -0 -0 -0 -0 -0 -0 -0 -0 -0 -0 -0 0 0 -0 -0 -0 -0 0 0 0 0 0 0 0 0 0
-0 -0 -0 -0 -0 -0 -0 -0 -0 -0 -0 -0 -0 -0 -0 -0 -0 -0 -0 -0 -0 -0 -0 -0 -0 -0 -0 0 0 0 -0 -0 0 0 0 0 0 0 0 0 0 0 0
-0 -0 -0 -0 -0 -0 -0 -0 -0 -0 -0 -0 -0 -0 -0 -0 -0 -0 -0 -0 -0 -0 -0 -0 -0 -0 -0 -0 -0 -0 -0 0 0 0 0 0 0 0 0 0 0 0 0
-0 -0 -0 -0 -0 -0 -0 -0 -0 -0 -0 -0 -0 -0 -0 -0 -0 -0 -0 -0 -0 -0 -0 -0 -0 -0 -0 0 0 -0 0 0 0 0 0 0 0 0 0 0 0 0 0
-0 -0 -0 0 0 -0 -0 -0 -0 -0 -0 -0 -0 -0 -0 -0 -0 -0 -0 -0 -0 -0 -0 -0 -0 0 0 0 0 -0 0 0 0 0 0 0 0 0 0 0 0 0 0
-0 0 0 0 0 0 -0 -0 -0 -0 -0 -0 -0 -0 -0 -0 -0 -0 -0 0 0 0 0 0 0 0 0 0 0 0 0 0 0 0 0 0 0 0 0 0 0 0 0
0 0 0 0 0 0 0 0 0 0 -0 0 0 -0 0 0 0 0 0 0 0 0 0 0 0 0 0 0 0 0 0 0 0 0 0 0 0 0 0 0 0 0 0
0 0 0 0 0 0 0 0 0 0 0 0 0 0 0 0 0 0 -0 0 0 0 0 0 0 0 0 0 0 -0 0 0 0 0 0 0 0 0 0 0 0 0 0
0 0 0 0 0 0 0 0 0 0 0 0 0 0 0 0 0 0 0 0 0 0 0 0 0 0 0 0 0 -0 0 0 0 0 0 0 0 0 0 0 0 0 0
0 0 0 0 0 0 0 0 0 0 0 0 0 0 -0 0 0 0 0 0 0 0 0 0 0 0 0 0 0 0 0 0 0 0 0 0 0 0 0 0 0 0 0
0 0 0 0 0 0 0 0 0 0 0 0 0 0 0 0 0 0 0 0 0 0 0 0 0 0 0 0 0 0 0 0 0 0 0 0 0 0 0 0 0 0 0
0 0 0 0 0 0 0 0 0 0 0 0 0 0 0 0 0 0 0 0 0 0 0 0 0 0 0 0 0 0 0 0 0 0 0 0 0 0 0 0 0 0 0
0 0 0 0 0 0 0 0 0 0 0 0 0 0 0 0 0 0 0 0 0 0 0 0 0 0 0 0 0 0 0 0 0 0 0 0 0 0 0 0 0 0 0
0 0 0 0 0 0 0 0 0 0 0 0 0 0 0 0 0 0 0 0 0 0 0 0 0 0 0 0 0 0 0 0 0 0 0 0 0 0 0 0 0 0 0
0 0 0 0 0 0 0 0 0 0 0 0 0 0 0 0 0 0 0 0 0 0 0 0 0 0 0 0 0 0 0 0 0 0 0 0 0 0 0 0 0 0 0
0 0 0 0 0 0 0 0 0 0 0 0 0 0 0 0 0 0 0 0 0 0 0 0 0 0 0 0 0 0 0 0 0 0 0 0 0 0 0 0 0 0 0
0 0 0 0 0 0 0 0 0 0 0 0 0 0 0 0 0 0 0 0 0 0 0 0 0 0 0 0 0 0 0 0 0 0 0 0 0 0 0 0 0 0 0
0 0 0 0 0 0 0 0 0 0 0 0 0 0 0 0 0 0 0 0 0 0 0 0 0 0 0 0 0 0 0 0 0 0 0 0 0 0 0 0 0 0 0
0 0 0 0 0 0 0 0 0 0 0 0 0 0 0 0 0 0 0 0 0 0 0 0 0 0 0 0 0 0 0 0 0 0 0 0 0 0 0 0 0 0 0
0 0 0 0 0 0 0 0 0 0 0 0 0 0 0 0 0 0 0 0 0 0 0 0 0 0 0 0 0 0 0 0 0 0 0 0 0 0 0 0 0 0 0
0 0 0 0 0 0 0 0 0 0 0 0 0 0 0 0 0 0 0 0 0 0 0 0 0 0 0 0 0 0 0 0 0 0 0 0 0 0 0 0 0 0 0
0 0 0 0 0 0 0 0 0 0 0 0 0 0 0 0 0 0 0 0 0 0 0 0 0 0 0 0 0 0 0 0 0 0 0 0 0 0 0 0 0 0 0
0 0 0 0 0 0 0 0 0 0 0 0 0 0 0 0 0 0 0 0 0 0 0 0 0 0 0 0 0 0 0 0 0 0 0 0 0 0 0 0 0 0 0
Wind_Speed_500mb
11 20 20 19 17 13 8 5 3 3 5 8 8 18 24 29 27 24 31 25 25 30 33 31 33 35 34 35 38 37 38 42 44 44 39 36 37 34 33 32 32 31 29
19 21 19 18 14 11 4 1 1 3 5 10 21 26 27 37 29 16 29 25 17 28 29 32 33 31 32 37 38 37 39 38 38 37 35 27 31 29 25 25 25 21 19
16 23 19 18 13 7 4 3 6 4 13 22 25 27 26 33 25 25 32 23 15 21 28 30 30 32 31 32 34 35 38 38 35 29 29 29 27 21 17 17 21 20 20
17 22 22 19 11 9 7 5 4 5 21 24 22 24 25 30 26 25 33 21 15 24 29 27 26 27 30 31 30 30 31 34 31 23 20 18 16 21 20 19 22 20 18
18 21 23 17 12 12 8 10 9 5 20 24 20 24 18 27 28 21 24 13 13 25 27 25 24 28 29 28 27 26 31 30 22 24 20 13 12 16 19 22 20 19 17
25 20 21 17 13 12 8 9 12 15 13 16 24 17 20 26 28 24 28 14 20 26 22 23 25 24 23 23 24 27 34 20 14 12 12 10 16 17 22 21 20 18 18
30 21 23 19 14 12 7 6 9 11 11 10 12 17 14 22 27 21 21 22 18 21 20 21 19 19 19 21 20 21 26 20 13 7 4 13 16 19 19 20 19 20 19
27 18 25 24 18 15 12 10 5 6 8 7 10 14 14 19 27 19 18 21 21 17 17 15 14 15 17 20 21 21 23 16 5 8 10 15 15 15 17 17 19 19 17
20 19 20 24 24 20 18 16 9 3 1 3 5 8 12 13 19 21 17 19 18 16 13 11 10 12 14 16 18 19 21 15 11 5 9 13 14 14 15 15 17 17 19
31 27 21 24 24 25 23 22 15 8 6 5 5 3 5 10 13 15 16 18 18 16 12 8 7 9 11 13 14 14 15 14 7 2 5 10 13 11 12 13 16 18 19
32 30 27 20 20 21 24 26 22 17 13 11 11 10 7 9 11 14 16 15 17 15 11 6 4 5 7 10 14 12 13 13 3 6 7 6 9 7 10 12 16 20 20
36 31 30 31 23 28 27 25 25 22 18 16 16 15 12 10 14 14 12 15 16 15 11 6 3 2 6 8 11 12 13 13 8 8 7 15 10 7 10 14 17 19 20
38 34 33 33 30 34 34 28 26 24 22 19 18 17 19 17 20 20 17 20 19 18 13 8 5 4 2 4 11 3 9 4 9 9 20 18 10 9 11 14 20 20 21
40 38 38 37 39 39 37 35 31 28 23 21 23 22 26 31 27 26 23 23 22 19 17 10 9 7 9 10 11 11 12 10 11 15 16 21 22 10 14 25 22 23 22
41 45 45 42 42 44 40 35 38 35 32 32 29 30 32 33 31 28 25 25 24 21 20 18 15 17 14 11 12 10 9 19 19 19 19 19 18 20 21 22 20 21 23
46 49 49 49 47 46 49 44 40 40 38 35 35 33 34 35 34 31 32 31 28 25 23 21 18 19 16 17 16 15 14 22 23 16 13 12 11 11 12 11 12 16 18
45 50 52 54 55 55 52 49 43 39 37 40 43 38 36 38 37 34 36 35 33 30 28 27 27 27 22 21 23 18 19 23 22 15 14 13 12 11 11 11 12 12 14
41 53 56 59 59 60 56 54 52 47 44 47 46 44 43 41 43 41 41 40 37 36 35 36 32 30 26 27 24 21 23 28 23 25 21 19 19 17 17 15 15 15 17
46 46 52 58 56 59 60 58 55 54 53 51 53 51 50 47 48 49 47 43 41 42 40 38 34 29 31 30 26 28 30 33 28 29 27 23 22 23 23 24 22 24 26
49 48 52 55 59 54 61 63 60 57 54 56 59 58 55 53 53 53 52 48 47 47 46 43 39 36 37 30 30 34 39 40 35 34 30 26 23 24 26 28 30 30 31
55 55 61 60 61 61 60 70 73 71 66 63 62 61 60 58 56 56 57 55 54 54 51 46 43 43 43 34 33 39 41 48 44 39 37 27 22 23 27 29 31 33 33
61 64 66 69 68 67 66 67 74 74 76 72 68 66 67 63 60 59 60 61 61 59 57 54 50 49 45 38 42 35 30 38 36 23 19 19 17 26 32 34 37 40 40
67 69 70 74 72 73 71 67 67 69 76 77 79 74 76 73 68 65 63 61 63 64 63 59 56 56 54 48 44 41 19 20 17 28 25 22 30 30 33 40 43 44 45
71 70 68 70 71 72 73 75 77 79 82 85 84 81 78 76 75 74 72 67 64 67 68 63 59 59 58 60 54 56 61 52 25 23 25 23 27 38 45 44 47 50 49
59 67 67 69 70 72 73 82 82 84 85 81 75 75 79 80 78 76 78 77 74 72 70 66 66 65 65 65 64 62 60 59 60 57 55 55 46 41 45 55 57 49 47
40 29 45 56 64 69 72 80 88 89 87 86 82 80 79 78 78 80 80 83 81 80 78 73 70 70 68 67 68 68 70 66 61 55 58 60 57 59 56 52 53 53 49
Wind_Direction_500mb
175 143 130 125 124 124 124 112 72 360 5 13 69 93 101 104 94 89 89 84 110 91 87 89 85 85 83 83 78 75 81 94 83 75 71 76 73 68 77 84 84 86 83
180 153 142 138 138 134 150 168 20 11 30 72 95 107 107 109 106 104 107 102 85 93 94 90 91 88 84 76 79 84 87 82 81 72 64 65 76 78 84 77 63 55 39
182 154 153 150 141 139 132 65 38 24 88 100 110 111 105 110 114 98 91 109 89 89 98 94 89 82 82 81 84 88 85 83 79 77 75 79 77 69 65 42 24 9 1
179 162 156 157 141 132 122 79 44 78 106 106 100 106 114 116 113 106 109 115 99 100 96 92 89 84 81 78 85 89 85 78 70 90 102 82 71 55 41 16 5 356 10
147 168 157 162 152 145 123 89 54 100 116 116 115 110 112 119 115 106 116 136 113 97 102 95 85 75 78 80 83 95 93 75 80 87 108 85 52 30 13 12 15 26 38
178 195 169 172 165 157 139 106 76 69 78 113 122 127 123 125 125 133 126 133 113 111 108 89 79 79 77 80 87 98 92 77 74 89 90 67 47 35 17 25 34 37 47
180 181 181 176 176 168 160 127 86 91 96 103 126 134 144 137 131 130 137 129 112 114 102 89 85 81 73 69 77 93 105 88 69 68 54 38 33 47 25 33 34 36 45
179 188 187 181 180 176 173 163 132 117 119 136 143 150 149 141 138 145 140 132 128 108 106 102 88 81 70 66 68 88 109 85 61 69 21 41 28 46 36 33 31 34 44
180 194 191 194 184 186 188 188 190 208 170 171 153 143 145 151 153 156 149 136 135 130 125 111 92 76 67 66 68 92 116 86 90 79 55 53 15 61 45 33 28 32 46
194 191 212 195 196 192 197 199 201 214 225 214 220 202 195 173 164 163 158 146 143 147 144 133 100 76 63 57 58 78 125 86 71 74 15 11 7 47 41 25 23 25 28
216 194 191 203 200 200 200 204 209 213 211 214 210 211 215 184 169 167 167 161 159 166 166 148 103 67 56 52 45 59 78 101 67 335 321 12 350 20 18 7 12 14 16
211 199 198 194 201 201 205 207 216 218 217 223 220 205 197 182 190 192 189 184 184 188 187 181 175 78 45 40 22 40 50 90 4 10 335 334 335 318 328 353 354 359 7
206 211 202 199 185 212 212 209 220 216 216 221 220 199 191 212 214 215 210 208 204 205 207 212 219 215 84 154 280 65 298 32 151 267 304 320 321 279 297 324 340 344 354
198 213 213 205 191 215 224 208 215 211 211 222 230 218 206 212 223 224 216 218 218 217 228 231 232 243 241 228 237 224 282 315 323 331 325 331 344 317 303 318 325 334 341
204 209 223 208 206 203 227 225 211 215 213 219 231 230 221 220 226 217 227 226 224 226 229 236 239 251 251 252 252 251 306 302 312 325 326 335 334 332 334 325 322 328 328
203 213 222 218 212 209 219 229 223 218 216 226 236 234 229 228 228 224 223 229 233 230 232 237 245 253 256 246 250 254 266 281 301 331 343 355 7 356 346 346 336 320 316
215 206 220 229 219 217 220 229 232 230 225 226 234 237 232 231 230 230 229 230 232 233 233 235 231 244 236 247 250 251 258 279 292 309 320 330 327 336 336 331 327 324 319
229 216 214 227 227 221 223 224 228 231 231 232 234 236 236 232 234 234 234 233 232 234 235 237 240 245 245 240 254 255 261 273 294 301 300 301 304 306 308 303 302 311 316
236 227 221 226 229 226 224 228 230 233 234 236 239 238 236 235 233 237 238 236 235 236 238 239 241 242 239 244 247 254 254 279 288 286 296 295 290 288 291 295 296 295 298
242 230 233 231 234 230 227 227 232 235 230 230 238 241 240 238 236 236 240 238 237 238 238 238 240 240 244 245 251 254 253 277 281 282 291 291 281 275 279 282 290 294 290
243 233 228 234 237 238 229 225 228 229 230 227 231 240 242 242 239 238 240 241 239 240 243 243 245 244 244 242 247 257 265 267 273 278 279 278 274 270 277 281 288 295 299
246 244 229 231 235 240 244 238 236 236 239 243 238 233 240 243 243 241 241 241 242 242 243 243 244 247 248 240 243 260 276 279 280 270 255 275 270 276 281 291 296 300 304
243 246 240 237 234 240 246 246 239 238 240 239 243 243 241 243 244 243 243 244 243 245 246 248 248 246 247 244 236 236 246 249 276 278 268 258 281 273 282 292 298 303 309
245 252 248 243 241 238 242 241 242 239 235 243 244 246 247 245 244 244 245 244 244 245 247 249 250 249 248 248 248 241 243 250 268 284 287 275 272 274 278 287 291 300 310
257 251 253 250 248 245 243 243 242 243 246 249 249 246 245 250 251 247 246 246 245 245 248 249 250 249 250 251 251 255 256 259 253 258 274 276 279 279 284 294 291 299 312
251 253 246 249 251 253 252 244 242 245 244 244 245 246 246 248 253 252 248 247 246 245 247 248 250 250 251 253 255 254 256 255 256 254 261 269 278 284 284 286 283 296 302
Wind_Speed_850mb
11 20 20 19 17 13 8 5 3 3 5 8 8 18 24 29 27 24 31 25 25 30 33 31 33 35 34 35 38 37 38 42 44 44 39 36 37 34 33 32 32 31 29
19 21 19 18 14 11 4 1 1 3 5 10 21 26 27 37 29 16 29 25 17 28 29 32 33 31 32 37 38 37 39 38 38 37 35 27 31 29 25 25 25 21 19
16 23 19 18 13 7 4 3 6 4 13 22 25 27 26 33 25 25 32 23 15 21 28 30 30 32 31 32 34 35 38 38 35 29 29 29 27 21 17 17 21 20 20
17 22 22 19 11 9 7 5 4 5 21 24 22 24 25 30 26 25 33 21 15 24 29 27 26 27 30 31 30 30 31 34 31 23 20 18 16 21 20 19 22 20 18
18 21 23 17 12 12 8 10 9 5 20 24 20 24 18 27 28 21 24 13 13 25 27 25 24 28 29 28 27 26 31 30 22 24 20 13 12 16 19 22 20 19 17
25 20 21 17 13 12 8 9 12 15 13 16 24 17 20 26 28 24 28 14 20 26 22 23 25 24 23 23 24 27 34 20 14 12 12 10 16 17 22 21 20 18 18
30 21 23 19 14 12 7 6 9 11 11 10 12 17 14 22 27 21 21 22 18 21 20 21 19 19 19 21 20 21 26 20 13 7 4 13 16 19 19 20 19 20 19
27 18 25 24 18 15 12 10 5 6 8 7 10 14 14 19 27 19 18 21 21 17 17 15 14 15 17 20 21 21 23 16 5 8 10 15 15 15 17 17 19 19 17
20 19 20 24 24 20 18 16 9 3 1 3 5 8 12 13 19 21 17 19 18 16 13 11 10 12 14 16 18 19 21 15 11 5 9 13 14 14 15 15 17 17 19
31 27 21 24 24 25 23 22 15 8 6 5 5 3 5 10 13 15 16 18 18 16 12 8 7 9 11 13 14 14 15 14 7 2 5 10 13 11 12 13 16 18 19
32 30 27 20 20 21 24 26 22 17 13 11 11 10 7 9 11 14 16 15 17 15 11 6 4 5 7 10 14 12 13 13 3 6 7 6 9 7 10 12 16 20 20
36 31 30 31 23 28 27 25 25 22 18 16 16 15 12 10 14 14 12 15 16 15 11 6 3 2 6 8 11 12 13 13 8 8 7 15 10 7 10 14 17 19 20
38 34 33 33 30 34 34 28 26 24 22 19 18 17 19 17 20 20 17 20 19 18 13 8 5 4 2 4 11 3 9 4 9 9 20 18 10 9 11 14 20 20 21
40 38 38 37 39 39 37 35 31 28 23 21 23 22 26 31 27 26 23 23 22 19 17 10 9 7 9 10 11 11 12 10 11 15 16 21 22 10 14 25 22 23 22
41 45 45 42 42 44 40 35 38 35 32 32 29 30 32 33 31 28 25 25 24 21 20 18 15 17 14 11 12 10 9 19 19 19 19 19 18 20 21 22 20 21 23
46 49 49 49 47 46 49 44 40 40 38 35 35 33 34 35 34 31 32 31 28 25 23 21 18 19 16 17 16 15 14 22 23 16 13 12 11 11 12 11 12 16 18
45 50 52 54 55 55 52 49 43 39 37 40 43 38 36 38 37 34 36 35 33 30 28 27 27 27 22 21 23 18 19 23 22 15 14 13 12 11 11 11 12 12 14
41 53 56 59 59 60 56 54 52 47 44 47 46 44 43 41 43 41 41 40 37 36 35 36 32 30 26 27 24 21 23 28 23 25 21 19 19 17 17 15 15 15 17
46 46 52 58 56 59 60 58 55 54 53 51 53 51 50 47 48 49 47 43 41 42 40 38 34 29 31 30 26 28 30 33 28 29 27 23 22 23 23 24 22 24 26
49 48 52 55 59 54 61 63 60 57 54 56 59 58 55 53 53 53 52 48 47 47 46 43 39 36 37 30 30 34 39 40 35 34 30 26 23 24 26 28 30 30 31
55 55 61 60 61 61 60 70 73 71 66 63 62 61 60 58 56 56 57 55 54 54 51 46 43 43 43 34 33 39 41 48 44 39 37 27 22 23 27 29 31 33 33
61 64 66 69 68 67 66 67 74 74 76 72 68 66 67 63 60 59 60 61 61 59 57 54 50 49 45 38 42 35 30 38 36 23 19 19 17 26 32 34 37 40 40
67 69 70 74 72 73 71 67 67 69 76 77 79 74 76 73 68 65 63 61 63 64 63 59 56 56 54 48 44 41 19 20 17 28 25 22 30 30 33 40 43 44 45
71 70 68 70 71 72 73 75 77 79 82 85 84 81 78 76 75 74 72 67 64 67 68 63 59 59 58 60 54 56 61 52 25 23 25 23 27 38 45 44 47 50 49
59 67 67 69 70 72 73 82 82 84 85 81 75 75 79 80 78 76 78 77 74 72 70 66 66 65 65 65 64 62 60 59 60 57 55 55 46 41 45 55 57 49 47
40 29 45 56 64 69 72 80 88 89 87 86 82 80 79 78 78 80 80 83 81 80 78 73 70 70 68 67 68 68 70 66 61 55 58 60 57 59 56 52 53 53 49
Wind_Direction_850mb
175 143 130 125 124 124 124 112 72 360 5 13 69 93 101 104 94 89 89 84 110 91 87 89 85 85 83 83 78 75 81 94 83 75 71 76 73 68 77 84 84 86 83
180 153 142 138 138 134 150 168 20 11 30 72 95 107 107 109 106 104 107 102 85 93 94 90 91 88 84 76 79 84 87 82 81 72 64 65 76 78 84 77 63 55 39
182 154 153 150 141 139 132 65 38 24 88 100 110 111 105 110 114 98 91 109 89 89 98 94 89 82 82 81 84 88 85 83 79 77 75 79 77 69 65 42 24 9 1
179 162 156 157 141 132 122 79 44 78 106 106 100 106 114 116 113 106 109 115 99 100 96 92 89 84 81 78 85 89 85 78 70 90 102 82 71 55 41 16 5 356 10
147 168 157 162 152 145 123 89 54 100 116 116 115 110 112 119 115 106 116 136 113 97 102 95 85 75 78 80 83 95 93 75 80 87 108 85 52 30 13 12 15 26 38
178 195 169 172 165 157 139 106 76 69 78 113 122 127 123 125 125 133 126 133 113 111 108 89 79 79 77 80 87 98 92 77 74 89 90 67 47 35 17 25 34 37 47
180 181 181 176 176 168 160 127 86 91 96 103 126 134 144 137 131 130 137 129 112 114 102 89 85 81 73 69 77 93 105 88 69 68 54 38 33 47 25 33 34 36 45
179 188 187 181 180 176 173 163 132 117 119 136 143 150 149 141 138 145 140 132 128 108 106 102 88 81 70 66 68 88 109 85 61 69 21 41 28 46 36 33 31 34 44
180 194 191 194 184 186 188 188 190 208 170 171 153 143 145 151 153 156 149 136 135 130 125 111 92 76 67 66 68 92 116 86 90 79 55 53 15 61 45 33 28 32 46
194 191 212 195 196 192 197 199 201 214 225 214 220 202 195 173 164 163 158 146 143 147 144 133 100 76 63 57 58 78 125 86 71 74 15 11 7 47 41 25 23 25 28
216 194 191 203 200 200 200 204 209 213 211 214 210 211 215 184 169 167 167 161 159 166 166 148 103 67 56 52 45 59 78 101 67 335 321 12 350 20 18 7 12 14 16
211 199 198 194 201 201 205 207 216 218 217 223 220 205 197 182 190 192 189 184 184 188 187 181 175 78 45 40 22 40 50 90 4 10 335 334 335 318 328 353 354 359 7
206 211 202 199 185 212 212 209 220 216 216 221 220 199 191 212 214 215 210 208 204 205 207 212 219 215 84 154 280 65 298 32 151 267 304 320 321 279 297 324 340 344 354
198 213 213 205 191 215 224 208 215 211 211 222 230 218 206 212 223 224 216 218 218 217 228 231 232 243 241 228 237 224 282 315 323 331 325 331 344 317 303 318 325 334 341
204 209 223 208 206 203 227 225 211 215 213 219 231 230 221 220 226 217 227 226 224 226 229 236 239 251 251 252 252 251 306 302 312 325 326 335 334 332 334 325 322 328 328
203 213 222 218 212 209 219 229 223 218 216 226 236 234 229 228 228 224 223 229 233 230 232 237 245 253 256 246 250 254 266 281 301 331 343 355 7 356 346 346 336 320 316
215 206 220 229 219 217 220 229 232 230 225 226 234 237 232 231 230 230 229 230 232 233 233 235 231 244 236 247 250 251 258 279 292 309 320 330 327 336 336 331 327 324 319
229 216 214 227 227 221 223 224 228 231 231 232 234 236 236 232 234 234 234 233 232 234 235 237 240 245 245 240 254 255 261 273 294 301 300 301 304 306 308 303 302 311 316
236 227 221 226 229 226 224 228 230 233 234 236 239 238 236 235 233 237 238 236 235 236 238 239 241 242 239 244 247 254 254 279 288 286 296 295 290 288 291 295 296 295 298
242 230 233 231 234 230 227 227 232 235 230 230 238 241 240 238 236 236 240 238 237 238 238 238 240 240 244 245 251 254 253 277 281 282 291 291 281 275 279 282 290 294 290
243 233 228 234 237 238 229 225 228 229 230 227 231 240 242 242 239 238 240 241 239 240 243 243 245 244 244 242 247 257 265 267 273 278 279 278 274 270 277 281 288 295 299
246 244 229 231 235 240 244 238 236 236 239 243 238 233 240 243 243 241 241 241 242 242 243 243 244 247 248 240 243 260 276 279 280 270 255 275 270 276 281 291 296 300 304
243 246 240 237 234 240 246 246 239 238 240 239 243 243 241 243 244 243 243 244 243 245 246 248 248 246 247 244 236 236 246 249 276 278 268 258 281 273 282 292 298 303 309
245 252 248 243 241 238 242 241 242 239 235 243 244 246 247 245 244 244 245 244 244 245 247 249 250 249 248 248 248 241 243 250 268 284 287 275 272 274 278 287 291 300 310
257 251 253 250 248 245 243 243 242 243 246 249 249 246 245 250 251 247 246 246 245 245 248 249 250 249 250 251 251 255 256 259 253 258 274 276 279 279 284 294 291 299 312
251 253 246 249 251 253 252 244 242 245 244 244 245 246 246 248 253 252 248 247 246 245 247 248 250 250 251 253 255 254 256 255 256 254 261 269 278 284 284 286 283 296 302